Hourly Data Report for October 20, 2016

All times are specified in Local Standard Time (LST). Add 1 hour to adjust for Daylight Saving Time where and when it is observed.

BAKER LAKE A
NUNAVUT

64°17'56.000" N
96°04'40.000" W
18.60 m
2300503
71926
YBK

Download Data

Hourly Data (October 2016)
Hourly Data Report for October 20, 2016
Temp Definition
°C
Dew Point Temp Definition
°C
Rel Hum Definition
%
Wind Dir Definition
10's deg

Wind Spd Definition
km/h
Visibility Definition
km
Stn Press Definition
kPa
Hmdx Definition


Wind Chill Definition


Weather Definition


TIME
00:00 Legend Double Dagger -1.7 -3.7 86 31 18 24.1 101.50   -7 Snow
01:00 Legend Double Dagger -2.6 -4.3 88 31 19 24.1 101.51   -8 LegendNANA
02:00 Legend Double Dagger -4.4 -5.8 90 32 15 24.1 101.52   -10 LegendNANA
03:00 Legend Double Dagger -4.8 -6.2 90 34 14 24.1 101.57   -10 Mostly Cloudy
04:00 Legend Double Dagger -5.5 -6.7 91 33 18 24.1 101.58   -12 LegendNANA
05:00 Legend Double Dagger -6.0 -7.1 92 33 9 24.1 101.60   -10 LegendNANA
06:00 Legend Double Dagger -6.8 -8.2 90 33 7 24.1 101.58   -10 Mostly Cloudy
07:00 Legend Double Dagger -6.6 -7.7 92 34 7 32.2 101.54   -10 LegendNANA
08:00 Legend Double Dagger -7.5 -8.7 91 1 7 24.1 101.49   -11 LegendNANA
09:00 Legend Double Dagger -4.9 -6.4 89 5 12 24.1 101.47   -10 Cloudy
10:00 Legend Double Dagger -4.8 -6.6 87 6 16 24.1 101.42   -11 Snow
11:00 Legend Double Dagger -4.7 -6.4 88 6 18 8.1 101.38   -11 Snow,Fog
12:00 Legend Double Dagger -4.5 -6.2 88 7 23 6.4 101.33   -11 Snow,Fog,Blowing Snow
13:00 Legend Double Dagger -4.3 -5.7 90 7 28 6.4 101.27   -12 Snow,Fog,Blowing Snow
14:00 Legend Double Dagger -4.3 -5.6 91 8 26 2.8 101.24   -12 Snow,Fog,Blowing Snow
15:00 Legend Double Dagger -4.0 -5.1 92 8 27 6.4 101.16   -11 Snow,Fog,Blowing Snow
16:00 Legend Double Dagger -4.5 -5.6 92 8 31 1.2 101.15   -12 Snow,Fog,Blowing Snow
17:00 Legend Double Dagger -4.0 -5.0 93 7 27 4.8 101.10   -11 Snow,Fog,Blowing Snow
18:00 Legend Double Dagger -4.3 -5.3 93 7 26 4.0 101.06   -12 Snow,Fog,Blowing Snow
19:00 Legend Double Dagger -4.2 -5.2 93 7 31 4.8 101.05   -12 Snow,Blowing Snow
20:00 Legend Double Dagger -4.0 -5.1 92 7 27 16.1 101.02   -11 Snow,Blowing Snow
21:00 Legend Double Dagger -4.2 -5.6 90 7 27 16.1 100.99   -12 Snow,Blowing Snow
22:00 Legend Double Dagger -4.8 -6.2 90 7 29 16.1 100.96   -13 Snow,Blowing Snow
23:00 Legend Double Dagger -5.4 -6.9 89 7 31 24.1 100.95   -14 Snow,Blowing Snow

Notes on Data Quality.

Legend

  • E = Estimated
  • M = Missing
  • NA = Not Available
  • ‡ = Partner data that is not subject to review by the National Climate Archives
Date modified: